Simultaneous Nadir Overpasses (SNOs) Predictions

Prediction of SNOs between AQUA and GOES-15 Satellite Orbit:

Table of predicted SNOs for the next 14.0 days since TLE Epoch: 10/22/2016
Index Date Time (AQUA) AQUA Lat,Lon GOES-15 Lat,Lon Distance(km) Time Diff (sec)
1 10/23/2016 22:22:19 0.43,-131.87 -0.16,-134.55 305.33 80
2 10/24/2016 10:43:34 0.69,-137.02 0.14,-134.55 281.53 80
3 10/26/2016 10:31:24 0.04,-134.07 0.14,-134.45 43.79 80
4 10/28/2016 10:19:13 -0.57,-131.11 0.15,-134.35 368.75 80
5 10/28/2016 22:40:36 -0.58,-136.30 -0.12,-134.30 228.41 80
6 10/30/2016 22:28:26 0.04,-133.34 -0.13,-134.19 96.14 80
7 10/31/2016 10:49:41 1.02,-138.51 0.10,-134.20 489.92 80
8 11/01/2016 22:16:15 0.66,-130.39 -0.13,-134.08 420.13 80
9 11/02/2016 10:37:30 0.40,-135.55 0.11,-134.08 166.25 80
10 11/04/2016 10:25:18 -0.16,-132.58 0.11,-133.96 156.74 80
11 11/04/2016 22:46:43 -0.91,-137.78 -0.09,-133.89 441.99 80




NCC Satellite Simultaneous Nadir Overpasses (SNOs) Prediction Service
